CAPE
9 13 22 15 19 20 19 20 24 29 28 26 24 28 45 67 72 10 0 12 29 9 6 0 0 0 2 2 0 0 0 0 0 0 0 0 0 0 0 0 0 0 0 0 0 0 0 0 43 0 0 0 0 0
1 11 4 3 5 19 28 29 35 38 44 39 45 43 37 42 64 33 1 3 21 40 1 0 0 0 0 0 0 0 0 0 0 0 0 0 0 0 0 0 0 0 0 0 0 0 4 1 59 0 17 1 0 13
5 4 7 23 26 14 15 18 39 70 104 117 132 108 18 36 56 50 0 1 8 8 0 0 0 0 0 0 0 5 0 0 0 0 0 0 0 0 0 0 0 0 1 10 43 42 1 7 39 79 103 103 96 143
2 2 3 13 7 9 14 29 18 12 22 9 22 21 19 33 36 46 0 0 10 4 3 0 0 0 0 0 0 0 0 0 0 0 0 0 0 0 0 0 0 2 57 33 0 0 0 0 7 77 49 43 90 51
0 0 0 1 6 9 15 47 20 4 10 9 6 1 3 20 12 7 0 0 0 3 1 0 0 0 0 0 0 0 0 0 0 2 2 1 0 0 0 0 4 0 77 74 7 11 13 0 0 5 75 42 0 0
0 0 0 0 0 2 17 40 17 3 0 11 6 4 5 0 10 0 0 0 0 0 2 8 0 0 0 0 0 0 0 0 0 24 10 0 0 0 1 13 0 0 0 0 49 0 0 0 0 0 0 0 0 0
0 0 0 0 0 5 10 10 14 4 2 0 0 0 0 0 0 0 0 0 0 1 6 2 2 0 0 0 0 0 0 0 15 20 7 0 0 0 0 14 0 0 0 0 0 0 0 0 0 0 0 0 0 0
1 1 0 0 8 21 13 5 12 11 3 0 0 0 0 0 0 0 0 0 0 1 4 0 2 0 0 0 0 0 0 11 13 6 0 0 0 0 9 0 0 0 0 0 0 0 0 0 0 0 0 0 0 0
0 0 0 0 1 3 0 0 4 6 4 6 0 0 0 0 0 0 3 11 0 0 2 3 0 5 10 0 0 10 5 2 13 1 0 0 0 0 0 0 0 0 0 0 0 0 0 0 0 0 0 0 0 0
0 0 0 0 0 0 0 0 0 0 0 0 0 0 1 0 0 0 6 0 1 0 0 0 1 0 0 0 1 5 6 2 1 0 0 0 0 0 0 0 0 0 0 0 0 0 0 0 0 0 0 0 0 0
0 0 0 0 0 0 0 0 0 0 0 0 0 0 0 0 6 1 5 0 0 0 0 0 1 0 0 12 1 0 3 8 2 2 8 2 0 0 0 0 0 0 0 0 0 0 0 0 0 0 0 0 0 0
0 0 0 0 0 0 0 0 2 0 0 0 0 0 0 0 0 0 1 3 1 0 1 0 2 0 0 0 8 1 1 0 0 0 5 5 14 2 0 0 0 0 0 0 0 0 0 0 0 0 0 0 0 0
0 0 0 0 0 0 0 0 0 1 3 1 1 1 4 2 0 0 0 0 0 0 1 4 3 0 0 0 1 0 2 0 0 11 6 7 33 50 26 20 17 5 0 0 0 0 0 0 0 0 0 0 0 0
0 0 0 0 0 0 0 0 0 0 0 1 0 0 0 0 0 0 1 1 0 0 0 0 0 2 0 0 0 0 0 0 1 7 29 16 24 45 74 51 40 35 15 0 0 0 0 0 0 0 0 0 0 0
0 0 0 0 0 0 0 0 0 0 0 0 0 3 3 6 5 1 1 2 1 1 0 0 0 0 0 0 0 0 1 5 24 13 2 1 0 1 7 31 53 47 22 1 0 0 0 0 0 0 0 0 0 0
0 0 0 0 0 0 0 0 0 0 1 0 0 0 0 0 0 0 0 0 0 0 0 0 0 0 0 0 0 1 0 2 3 3 1 0 0 0 0 0 11 18 15 1 0 0 0 0 0 0 0 0 0 0
0 0 0 0 0 0 0 0 0 0 0 0 0 0 0 0 2 0 0 0 0 0 4 5 3 0 0 0 0 0 1 1 0 0 0 0 0 0 0 0 11 15 10 1 0 0 0 0 0 0 0 0 0 0
0 0 0 0 0 0 0 0 0 0 0 0 0 0 0 0 0 0 0 0 0 0 0 0 0 0 1 3 5 2 1 0 0 0 0 0 0 0 0 0 11 24 15 0 0 0 0 0 0 0 0 0 0 0
0 0 0 0 0 0 0 0 0 0 0 0 0 0 0 0 0 0 0 0 0 0 0 0 0 1 3 6 3 1 2 1 0 1 2 0 0 0 0 0 8 19 0 0 0 0 0 0 0 0 0 0 0 0
0 0 0 0 0 0 0 0 0 0 0 0 0 0 0 0 0 0 0 0 0 0 0 1 2 5 3 1 0 0 1 0 0 0 0 0 0 0 0 0 14 0 0 0 0 0 0 0 0 0 0 0 0 0
0 0 0 0 0 0 0 0 0 0 0 0 0 0 0 0 0 0 0 0 0 0 0 4 6 4 9 10 1 5 0 0 0 0 0 0 0 6 5 5 8 3 3 11 11 6 6 14 20 13 5 0 0 0
0 0 0 0 0 0 0 0 0 0 0 0 0 0 0 0 0 0 0 0 0 1 0 0 1 5 10 5 13 13 4 9 4 10 8 1 0 0 0 9 25 40 54 61 64 55 47 48 24 0 0 0 0 0
0 0 0 0 0 0 0 0 0 0 0 0 0 0 0 0 0 0 1 0 0 0 0 0 1 1 0 0 0 0 2 21 24 16 17 7 8 1 2 5 27 33 56 65 37 5 11 21 0 0 0 0 0 0
0 0 0 0 0 0 0 0 0 0 0 0 0 0 0 0 0 1 0 0 0 0 0 0 0 0 0 0 0 0 13 13 0 0 0 8 7 14 11 0 0 0 1 10 22 1 0 0 0 2 0 0 0 0
0 0 0 0 0 1 2 1 5 0 0 0 0 0 0 0 0 1 8 7 0 0 0 0 0 0 0 0 0 2 1 15 0 0 0 0 0 0 0 0 0 0 0 0 0 0 0 0 0 0 13 8 3 1
0 0 1 4 5 0 11 7 14 12 24 22 1 0 0 5 2 5 18 5 0 0 0 0 0 0 0 0 0 0 0 0 0 0 0 0 0 0 0 0 0 0 0 0 0 0 0 0 0 0 0 0 0 0
0 0 0 0 0 7 0 0 0 0 3 14 2 2 0 0 4 16 1 0 1 0 0 0 0 0 0 0 0 0 0 0 0 0 0 0 0 0 0 0 0 0 0 0 0 0 0 0 0 0 0 0 0 0
0 0 15 0 2 1 15 5 6 3 0 1 0 2 6 0 7 9 2 0 0 0 0 0 0 0 0 0 0 0 0 0 0 0 0 0 0 0 0 0 0 0 0 0 0 0 0 0 0 0 0 0 0 0
14 15 0 0 0 0 0 0 0 2 4 2 0 0 0 0 0 0 0 0 0 0 0 0 0 0 0 0 0 0 0 0 0 0 0 0 0 0 0 0 0 0 0 0 0 0 0 0 0 0 1 1 0 1
9 0 0 0 0 0 1 2 4 4 0 0 0 1 0 0 0 0 0 0 0 0 0 0 0 0 0 0 0 0 0 0 0 0 0 0 0 0 0 0 0 0 0 0 0 0 0 0 0 0 0 0 0 0
0 0 15 6 5 0 0 0 0 5 7 0 10 1 0 0 0 0 0 0 0 0 0 0 0 0 0 0 0 0 0 0 0 0 0 0 0 0 0 0 0 0 0 0 0 0 0 0 0 0 0 0 0 0
1 26 46 0 14 8 0 0 0 3 0 0 10 7 3 25 1 0 0 0 0 0 0 0 0 0 0 0 0 0 0 0 0 0 0 0 0 0 0 0 0 0 0 0 0 0 0 0 0 0 0 0 0 0
31 0 5 1 0 36 5 0 0 0 4 18 6 0 0 0 1 0 0 0 0 0 0 0 0 0 0 0 0 0 0 0 0 0 0 0 0 0 0 0 0 0 0 0 0 0 0 0 0 0 0 0 0 0
CIN
-1 0 0 0 0 0 0 0 0 0 0 0 0 0 0 -4 -1 -9 -2 -37 -1 0 -2 0 0 0 -5 -1 0 0 0 0 0 -6 0 0 0 0 0 0 0 0 0 0 0 0 0 0 -288 0 0 0 0 0
0 0 0 0 0 0 0 0 0 0 0 0 0 0 -4 -19 -1 -3 0 -13 -16 0 -4 0 0 0 0 0 0 0 0 0 0 0 0 0 0 0 0 0 0 0 0 0 0 0 -182 -60 -400 0 -728 -36 -101 -426
0 0 0 0 0 -2 -1 -2 0 -2 -1 0 0 -1 -1 -12 -7 -2 0 -6 -5 -1 0 0 0 0 0 0 0 0 0 0 0 0 0 0 0 0 0 0 0 0 -68 -135 -155 -345 -167 -407 -679 -598 -647 -645 -839 -870
0 0 0 -2 -3 -3 -3 0 -1 -4 -10 -20 -14 0 0 -4 -4 -3 0 0 -5 0 0 0 0 0 0 0 0 0 0 0 0 0 0 0 0 0 0 0 0 -23 -236 -258 0 0 0 0 -480 -502 -610 -799 -835 -840
0 0 -1 -1 -2 -2 0 0 -3 -6 -8 -10 -10 -11 0 -6 -5 -9 0 0 0 -1 0 0 0 0 0 0 0 0 0 0 0 0 -2 0 -1 0 0 0 -228 0 -257 -97 -84 -240 -68 0 0 -384 -574 -673 -206 0
0 0 0 0 -1 -2 0 0 -6 -10 0 -10 -13 -10 -6 0 -9 0 0 0 0 0 0 -1 0 0 0 0 0 0 0 0 0 0 -1 0 0 -2 -116 -235 0 0 0 0 -283 0 0 0 0 0 0 0 0 0
0 0 0 0 -2 -2 0 -3 -7 -3 -16 0 0 0 0 0 0 0 0 0 0 -2 -6 0 -1 0 0 0 0 0 0 -1 0 0 -1 0 0 0 0 -180 0 0 0 0 0 0 0 0 0 0 0 0 0 0
-1 -1 0 0 -5 -2 -3 -5 -3 -3 -4 0 0 0 0 0 0 0 0 0 0 0 -2 0 0 0 0 0 0 0 0 -1 -1 -2 0 -1 0 0 -180 0 0 0 0 0 0 0 0 0 0 0 0 0 0 0
0 0 0 0 -2 -11 -19 -23 -13 -9 -4 -6 0 0 0 0 0 0 -14 -16 0 0 0 0 0 -1 -44 0 0 -3 -4 0 -1 0 0 0 0 0 0 0 0 0 0 0 0 0 0 0 0 0 0 0 0 0
0 0 0 0 0 0 0 0 0 0 0 0 0 0 -4 0 0 -1 -2 0 0 0 0 0 0 0 0 0 -19 -8 -1 -2 0 0 0 -2 0 0 0 0 0 0 0 0 0 0 0 0 0 0 0 0 0 0
0 0 0 0 0 0 0 0 0 0 0 0 0 0 0 0 -6 -3 0 0 0 0 0 0 0 0 0 -33 -1 0 -1 -7 0 0 0 -2 0 0 0 0 0 0 0 0 0 0 0 0 0 0 0 0 0 0
0 0 0 0 0 0 0 0 0 0 0 0 0 0 0 0 0 0 0 0 0 0 0 0 -4 0 0 0 -3 -1 0 0 0 0 0 0 -8 -62 0 0 0 0 -36 0 0 0 0 0 0 0 0 0 0 0
0 0 0 0 0 0 0 0 0 0 0 0 0 -2 0 0 0 0 0 0 0 0 -2 -3 -26 -1 0 0 -3 -2 -14 -1 0 -1 0 -5 -47 -92 -132 -132 -133 -153 0 0 0 0 0 0 0 0 0 0 0 0
0 0 0 0 0 0 0 0 0 0 0 0 0 0 0 0 -1 0 0 0 0 0 0 0 0 -12 0 0 0 0 0 0 0 0 0 -7 -45 -93 -113 -115 -116 -137 -135 -14 0 0 0 0 0 0 0 0 0 0
0 0 0 0 0 0 0 0 0 0 0 0 0 0 -2 0 -1 0 0 0 0 0 0 0 0 0 0 0 0 0 -14 -7 -1 -13 0 0 0 -83 -154 -151 -142 -120 -100 -14 0 0 0 0 0 0 0 0 0 0
0 0 0 0 0 0 0 0 0 0 -31 0 0 0 0 0 0 0 0 0 0 0 0 0 -39 0 -41 0 0 0 -1 -6 0 0 0 0 0 0 0 0 -151 -105 -82 -10 0 0 0 0 0 0 0 0 0 0
0 0 0 0 0 0 0 0 0 0 0 0 0 0 0 0 0 0 0 0 0 0 -137 -130 -91 0 -24 -31 0 0 0 0 0 0 0 0 0 0 0 0 -99 -89 -83 -16 0 0 0 0 0 0 0 0 0 0
0 0 0 0 0 0 0 0 0 0 0 0 0 0 0 0 0 0 0 0 0 0 0 0 0 0 -1 0 -1 0 0 0 0 0 0 0 0 0 0 0 -110 -81 -68 0 0 0 0 0 0 0 0 0 0 0
0 0 0 0 0 0 0 0 0 0 0 0 0 0 0 0 0 0 0 0 0 0 0 -1 0 0 0 0 0 -1 -2 -4 0 0 0 0 0 0 0 0 -107 -74 0 0 0 0 0 0 0 0 0 0 0 0
0 0 0 0 0 0 0 0 0 0 0 0 0 0 0 0 0 0 0 0 0 0 0 -1 -1 0 0 -2 -2 0 -6 0 0 -15 0 -4 0 0 0 0 -38 0 0 0 0 0 0 0 0 0 0 0 0 0
0 0 0 0 0 0 0 0 0 0 0 0 0 0 0 0 0 0 0 0 0 0 -1 -11 -12 -16 -21 -17 -24 -13 -4 0 0 0 0 0 0 -38 -32 -38 -40 -49 -41 -49 -47 -55 -54 -44 -53 -81 -84 0 0 0
0 0 0 0 0 0 0 0 0 0 0 0 0 0 0 0 0 0 0 0 0 -22 0 -24 -75 -67 -44 -28 -25 -35 -42 -66 -67 -67 -59 -56 -6 0 -14 -39 -31 -28 -33 -35 -41 -44 -41 -56 -70 0 0 0 0 0
0 0 0 0 0 0 0 0 0 0 0 0 0 0 0 0 0 0 -19 0 -30 0 0 -39 -81 -86 0 0 0 -3 -95 -76 -68 -76 -71 -72 -68 -58 -23 -14 -30 -23 -16 -27 -77 -32 -60 -66 0 0 0 0 0 0
0 0 0 0 0 0 0 0 0 0 0 0 0 0 0 0 0 -16 0 0 0 0 0 0 0 0 0 0 0 0 -84 -97 0 0 0 -73 -38 -54 -91 -16 0 0 -9 -99 -88 -12 -53 0 0 -40 0 0 0 0
0 0 0 0 0 -38 -45 -8 -43 0 0 0 0 0 0 0 0 -11 -15 -33 -20 0 0 0 0 0 0 0 -2 -58 -42 -83 0 0 0 0 0 -3 0 0 0 0 0 0 0 0 0 0 0 0 -71 -54 -47 -26
0 0 -15 -32 -34 0 -39 -24 -27 -24 -31 -21 -13 0 -2 -24 -12 -10 -11 -54 -7 0 0 0 0 0 0 0 0 0 0 0 0 0 0 0 0 0 0 0 0 0 0 0 0 0 0 0 0 0 0 0 0 0
0 0 0 0 0 -113 -3 0 0 -25 -28 -20 -13 -21 0 -6 -3 -3 -26 0 -53 0 0 0 0 0 0 0 0 0 0 0 -32 0 0 0 0 0 0 0 0 0 0 0 0 0 0 0 0 0 0 0 0 0
0 0 -22 0 -43 -82 -39 -58 -81 -75 0 -73 0 -35 -28 0 -7 -20 -46 0 0 0 0 0 0 0 0 0 0 0 0 0 0 0 0 0 0 0 0 0 0 0 0 0 0 0 0 0 0 0 0 0 0 0
-50 -92 -16 0 0 0 0 -48 -2 0 0 0 0 0 -1 0 0 0 0 0 0 0 0 0 0 0 0 0 0 0 0 0 0 0 0 0 0 0 0 0 0 0 0 0 0 0 0 0 0 0 -114 -104 0 -109
-50 0 0 0 0 0 -21 -22 -3 -3 0 0 -3 0 0 0 0 0 0 0 0 0 0 0 0 0 0 0 0 0 0 0 0 0 0 0 0 0 0 0 0 0 0 0 0 0 0 0 0 0 0 0 0 0
0 0 -86 -70 -54 0 0 0 0 -5 -6 0 -4 -6 0 0 0 0 0 0 0 0 0 0 0 0 0 0 0 0 0 0 0 0 0 0 0 0 0 0 0 0 0 0 0 0 0 0 0 0 0 0 0 0
-32 -68 -54 0 -87 -140 0 0 0 -6 0 0 -1 -1 -8 0 -1 0 0 0 0 0 0 0 0 0 0 0 0 0 0 0 0 0 0 0 0 0 0 0 0 0 0 0 0 0 0 0 0 0 0 0 0 0
-67 0 -117 -14 0 -97 -145 0 0 0 -5 -2 -4 0 0 0 -2 0 0 0 0 0 0 0 0 0 0 0 0 0 0 0 0 0 0 0 0 0 0 0 0 0 0 0 0 0 0 0 0 0 0 0 0 0
Wind_Speed
23 24 23 18 20 22 22 21 16 16 26 21 23 24 27 26 24 22 25 21 26 32 35 35 35 35 35 35 38 32 32 29 31 34 36 38 40 44 43 36 39 39 35 35 32 32 34 22 23 26 29 33 26 19
22 22 24 22 17 17 17 16 12 12 9 9 34 22 22 14 22 21 26 23 26 32 34 33 38 39 38 38 39 33 32 28 27 28 29 31 34 33 38 48 33 41 36 33 30 31 20 19 22 27 27 28 25 17
22 20 18 16 14 15 18 19 15 10 16 25 36 38 6 14 16 20 26 26 26 32 37 36 36 40 41 45 39 38 31 26 23 21 26 28 34 29 35 38 32 31 29 32 28 27 24 19 13 13 12 12 8 7
19 18 16 15 18 17 14 14 12 13 13 17 26 16 9 10 18 27 27 26 26 26 29 31 26 31 28 35 43 49 42 25 22 24 25 26 31 26 29 30 33 29 24 26 27 21 15 18 16 7 8 5 7 3
14 14 13 12 11 12 12 10 9 9 7 7 8 17 16 22 23 24 26 28 27 25 26 32 33 26 29 38 39 42 43 40 33 29 28 29 28 26 27 27 30 26 27 28 31 22 24 17 12 5 1 3 5 2
14 12 10 10 10 15 11 9 10 5 5 5 9 14 17 18 19 18 19 19 24 26 23 21 21 21 22 24 30 32 34 30 29 27 29 26 26 23 27 29 26 28 27 24 19 13 7 5 4 2 5 4 3 2
10 9 9 9 11 9 9 9 10 8 7 8 9 12 15 17 18 19 18 16 4 18 19 19 19 18 11 13 21 24 29 26 29 27 28 31 28 24 26 27 24 21 18 12 9 12 6 5 3 1 4 5 7 11
10 10 9 9 9 7 6 7 9 8 6 7 9 12 14 16 16 16 18 22 24 19 18 19 20 18 19 23 22 21 25 27 26 21 24 28 25 23 24 20 16 11 8 8 10 7 9 6 3 3 5 2 3 7
10 10 9 7 7 6 5 9 9 4 3 5 8 12 15 16 16 17 14 18 23 21 18 19 19 17 16 19 17 23 25 30 21 19 19 21 23 25 21 14 9 9 8 11 11 8 5 3 1 2 4 6 8 10
11 10 8 7 6 6 6 6 5 4 2 9 13 14 16 17 14 14 19 18 20 19 19 14 21 20 16 19 22 22 20 22 17 16 19 25 19 16 14 11 5 8 8 8 7 5 4 4 4 5 7 8 9 10
10 8 7 5 5 5 8 7 7 4 11 15 13 14 13 13 17 18 18 17 18 18 18 18 19 17 20 17 15 16 23 23 15 17 20 18 14 13 11 8 6 4 5 2 1 1 1 2 2 4 7 9 11 13
8 9 8 6 5 7 9 10 6 8 9 12 12 11 13 15 16 14 14 16 18 18 18 21 18 21 20 22 16 18 20 22 13 13 14 19 11 8 6 5 5 3 4 3 2 2 3 5 6 7 9 12 14 15
12 11 10 6 6 8 11 9 6 2 7 13 12 12 11 14 9 13 14 17 19 19 20 15 14 20 20 16 13 11 15 19 19 14 15 13 9 5 4 3 2 3 5 5 5 6 7 9 11 13 14 16 16 18
15 14 11 6 8 11 10 8 6 14 15 13 11 11 14 12 10 12 7 13 15 17 15 15 17 18 19 10 8 12 12 12 11 13 12 10 6 5 3 3 2 5 7 8 9 10 11 13 14 16 17 19 20 21
17 17 7 11 11 12 10 7 11 16 18 18 15 10 13 6 6 1 4 11 9 15 14 14 13 14 12 12 9 9 10 10 9 9 11 9 6 5 5 6 7 9 10 10 11 12 14 16 18 19 20 20 19 19
15 7 9 14 15 16 11 5 14 18 18 15 15 9 3 6 4 2 1 4 7 9 15 15 12 11 8 10 8 9 10 9 9 8 7 10 9 8 9 10 12 12 11 11 12 13 15 16 16 17 17 17 18 18
5 12 7 14 16 11 3 11 14 16 15 15 11 10 5 8 4 3 3 2 4 10 11 11 7 9 10 8 9 9 8 10 11 14 13 15 14 16 15 13 12 11 11 12 12 14 14 15 16 17 17 19 19 19
10 5 6 12 13 4 12 15 16 17 15 12 10 3 7 11 9 7 6 4 6 9 11 14 13 6 10 11 10 11 13 15 15 17 18 19 19 20 18 14 13 12 12 13 13 11 13 15 16 18 18 18 18 18
9 5 6 6 7 12 12 13 13 16 14 11 8 8 8 7 8 6 6 6 15 15 15 14 12 9 8 10 11 10 10 11 12 13 14 15 17 18 14 11 11 10 12 12 11 12 13 15 16 17 17 18 18 18
13 13 12 14 18 20 21 19 17 17 15 13 10 7 11 12 7 10 9 9 16 21 17 18 16 12 11 10 13 13 6 6 8 11 13 14 14 12 11 11 9 9 10 12 13 14 15 16 17 17 17 17 17 17
13 15 13 18 22 26 25 20 22 20 16 18 17 17 21 20 19 13 10 13 25 24 23 20 16 11 10 10 10 8 15 3 8 11 11 13 13 14 12 9 9 10 11 11 13 14 16 17 19 19 18 17 17 17
13 11 16 18 24 24 24 19 19 19 20 19 19 18 20 18 18 14 13 15 18 17 15 15 17 14 14 13 7 9 4 6 6 6 11 14 16 14 12 12 11 11 11 13 16 18 19 19 19 19 19 18 16 16
9 15 15 17 21 22 19 17 21 20 21 14 14 19 18 15 11 10 21 17 17 13 12 14 13 13 12 9 6 8 8 9 13 12 13 15 12 12 12 13 13 14 16 17 18 18 19 19 18 20 20 16 16 16
15 17 19 21 22 20 16 18 19 17 17 16 14 14 14 14 12 20 19 17 15 11 17 9 29 32 24 14 23 22 22 23 23 21 19 19 18 15 16 16 17 16 16 18 19 20 20 21 22 21 18 18 19 21
17 16 16 18 18 18 17 14 15 16 15 13 11 13 14 15 17 16 17 10 11 11 15 27 33 32 31 30 29 28 26 24 24 24 24 21 18 18 18 17 19 20 21 21 22 22 22 23 23 22 21 19 18 21
20 18 18 14 13 14 14 15 14 14 13 12 15 16 16 19 19 18 13 14 21 23 29 29 30 30 30 30 29 29 28 27 24 25 25 24 23 19 19 20 21 22 24 24 24 24 25 25 24 23 23 21 21 23
19 18 20 18 14 13 12 12 14 14 15 16 17 16 17 17 19 20 21 23 24 25 26 27 29 29 28 28 29 28 28 27 25 23 23 24 25 24 24 23 25 26 27 27 28 28 28 29 28 29 30 29 28 27
15 14 16 9 18 18 14 18 19 19 18 19 15 16 15 16 16 17 19 21 22 24 26 28 29 29 29 29 28 29 28 27 24 23 22 25 25 26 27 27 28 30 30 31 31 30 31 32 32 32 31 30 28 27
20 20 21 21 21 22 20 18 22 20 24 16 15 14 15 15 18 17 19 20 24 26 27 29 30 31 31 30 30 30 30 30 28 28 28 29 30 31 32 32 33 33 34 34 32 31 30 29 29 28 28 27 27 27
21 22 23 24 25 25 22 21 22 23 25 21 17 13 17 18 11 13 21 21 26 28 29 30 31 33 32 30 28 30 30 29 29 28 29 30 30 31 32 32 32 32 31 31 30 30 30 29 29 29 29 29 28 28
18 21 22 23 23 22 22 21 22 21 22 20 18 17 17 15 16 19 22 23 26 29 32 33 33 33 32 33 31 29 28 29 29 29 29 28 29 30 31 31 31 31 31 31 31 31 31 30 30 30 31 31 31 31
19 20 22 21 21 20 20 23 23 23 23 23 23 19 17 16 17 20 25 25 30 33 34 33 34 33 32 31 31 29 28 30 30 32 31 29 28 27 28 29 30 31 31 31 31 31 31 31 31 31 31 31 31 31
18 19 20 19 18 17 16 18 19 20 20 21 21 19 20 19 20 18 21 27 29 32 33 32 29 31 32 32 32 33 33 32 31 29 27 26 27 28 29 30 31 31 31 31 31 31 32 32 32 32 32 31 31 31
Wind_Direction
9 8 8 8 4 359 354 350 348 344 333 334 326 322 306 300 299 299 289 293 281 276 272 271 266 264 264 258 251 255 259 252 253 246 246 246 244 241 244 246 236 234 237 246 253 259 266 282 280 265 276 271 270 259
15 11 7 5 1 357 353 345 335 336 304 305 299 314 310 319 303 300 283 287 282 270 268 274 262 259 260 256 254 253 247 255 252 249 248 249 245 244 241 240 245 235 238 239 249 255 275 287 284 286 282 276 267 258
14 12 10 359 350 356 359 359 355 339 349 331 302 280 196 312 309 297 275 272 277 272 268 266 264 254 254 244 246 244 250 252 252 264 253 247 242 249 241 239 241 242 241 244 248 259 264 273 293 320 320 299 296 262
15 14 9 5 10 4 359 359 6 15 17 9 331 314 332 337 291 252 252 256 261 268 269 271 282 265 266 246 231 223 237 250 256 267 254 244 244 248 248 246 241 239 239 234 249 249 263 274 271 282 334 11 45 53
10 9 2 351 347 353 346 350 39 51 63 93 150 188 207 232 242 233 231 227 219 257 270 264 271 259 246 230 222 223 224 234 248 250 245 245 248 252 249 247 240 238 238 241 248 242 261 260 274 267 238 117 92 56
13 5 352 341 330 18 351 4 51 91 117 170 191 197 209 212 211 225 236 237 202 202 262 256 265 249 255 235 221 217 217 228 234 242 240 247 245 253 245 241 246 245 246 251 242 247 228 230 272 279 127 122 126 168
6 1 360 4 14 11 14 14 54 81 129 151 174 190 194 189 190 198 206 242 41 163 236 235 221 242 248 205 213 215 215 226 229 245 239 243 247 250 242 242 249 248 245 235 202 165 201 216 192 79 84 75 94 122
15 16 13 10 7 0 349 34 49 70 112 163 181 186 187 181 192 203 208 193 183 206 205 198 201 212 217 209 211 223 220 224 230 241 244 237 245 237 238 241 243 235 206 186 178 182 145 139 116 61 57 72 300 306
19 21 19 22 20 19 24 44 41 42 109 171 187 171 164 159 157 166 198 187 154 195 182 179 201 209 235 215 226 220 220 216 226 244 237 236 233 229 225 213 213 222 189 164 149 145 150 149 147 342 346 340 333 330
23 27 30 34 43 41 26 12 15 0 61 134 139 149 144 155 174 178 155 168 175 196 203 188 185 208 234 223 211 201 214 217 232 240 239 221 226 224 216 225 169 119 127 130 151 184 218 257 284 314 318 324 325 322
22 22 27 19 12 358 342 337 334 324 84 93 142 153 178 203 154 144 150 161 169 171 172 169 168 202 194 215 221 220 192 196 217 225 215 211 201 214 226 209 195 201 231 229 151 262 333 14 0 356 332 331 317 316
340 329 330 331 332 344 339 337 353 71 108 126 143 151 137 132 130 135 144 158 167 167 171 171 174 175 182 175 208 221 196 193 213 207 205 195 206 225 202 160 162 136 83 66 43 25 344 341 339 338 332 325 328 329
312 320 336 355 13 348 336 345 358 99 122 107 108 111 116 112 131 120 121 148 162 162 171 175 178 160 169 183 242 248 217 195 181 197 185 196 218 216 212 166 100 20 27 21 5 356 339 331 328 331 329 324 325 323
306 310 315 26 17 331 334 335 26 84 95 103 115 105 105 116 91 99 149 136 163 179 189 182 169 158 154 228 250 201 204 220 226 211 198 202 222 230 260 280 320 328 346 352 341 333 333 334 332 331 328 324 322 322
300 301 299 52 324 321 321 332 81 87 86 95 112 114 99 119 117 66 105 132 164 179 188 186 192 191 179 190 247 270 243 243 258 230 210 209 234 262 269 291 325 327 342 339 330 326 324 323 323 324 325 328 332 329
300 296 71 307 309 307 300 73 83 84 93 110 109 105 72 114 90 43 20 127 160 195 168 171 202 206 244 251 287 290 247 246 245 252 254 253 289 287 293 309 320 322 331 343 339 338 335 335 337 338 341 342 340 338
304 66 305 305 309 302 105 97 104 97 109 105 112 103 97 123 125 135 165 163 243 174 178 197 240 219 216 302 301 277 285 262 268 231 251 257 284 261 266 291 305 318 333 343 347 346 354 353 350 345 342 343 346 347
76 45 311 299 302 114 104 93 106 106 106 110 112 79 99 111 109 117 120 118 138 152 154 157 170 236 217 209 233 249 248 240 236 239 246 250 258 258 265 293 316 341 357 355 354 1 357 357 357 358 357 352 351 350
55 44 46 37 80 111 117 108 116 112 108 116 118 112 115 117 117 129 133 130 114 118 138 151 162 179 199 208 220 236 251 251 256 268 284 283 278 272 291 310 328 358 359 4 14 9 354 345 342 345 349 350 352 357
76 80 70 78 89 98 102 99 108 113 114 116 111 100 110 107 103 109 103 109 114 105 114 121 128 141 160 182 176 171 245 286 280 329 321 319 322 328 320 308 324 342 355 358 349 335 331 324 321 328 338 343 339 339
89 79 85 86 90 85 96 102 102 106 115 104 100 105 103 102 99 95 89 107 102 99 105 107 105 112 136 159 165 152 154 236 331 336 325 335 340 3 12 2 343 339 336 339 335 336 335 325 316 315 324 325 334 338
93 88 90 87 77 84 90 101 107 100 104 110 108 105 105 102 98 98 105 106 104 103 108 111 111 123 126 132 169 157 193 266 216 226 331 353 12 6 5 9 358 352 338 312 297 297 295 309 314 316 310 322 337 339
105 92 96 84 75 79 91 98 94 96 108 124 111 104 107 107 104 103 100 102 104 106 111 112 114 117 120 137 181 266 292 299 318 310 326 338 311 289 302 301 304 290 285 296 312 326 321 317 327 327 320 327 335 338
95 87 78 69 67 77 96 98 104 111 116 118 120 120 118 118 116 100 94 98 99 101 23 35 79 60 33 17 20 12 38 38 3 9 351 346 338 350 2 353 346 334 319 306 310 314 319 318 315 318 327 325 323 318
84 88 87 75 75 77 86 108 114 119 129 139 137 135 124 117 114 107 97 105 108 106 96 73 39 36 37 35 29 21 12 2 0 0 354 355 360 10 3 3 357 347 341 339 333 330 326 325 324 320 317 324 325 326
68 72 66 76 83 86 87 86 106 123 132 144 120 110 103 89 93 93 96 101 80 67 38 44 44 36 28 25 21 14 11 22 24 8 359 354 355 354 347 338 337 337 339 340 335 331 329 331 333 332 332 330 325 322
63 57 46 48 55 63 81 92 77 74 65 53 48 57 46 55 51 53 58 51 47 47 45 38 31 33 32 30 27 22 10 7 14 17 12 7 4 359 354 341 332 330 328 330 328 327 324 323 322 319 316 313 313 315
70 63 46 54 37 30 35 17 9 6 3 1 23 20 31 31 33 29 40 41 52 42 27 21 19 19 16 17 15 10 10 9 12 3 355 348 349 346 340 337 333 327 327 327 325 323 321 318 315 313 313 314 316 317
60 52 49 49 42 36 37 29 356 7 329 1 8 5 14 26 5 28 34 26 34 23 13 7 358 358 5 13 10 5 1 360 1 357 351 342 336 334 336 334 330 327 324 322 324 325 325 325 324 323 322 321 320 320
54 50 50 47 46 43 40 29 19 10 7 349 343 45 35 39 333 338 21 10 27 22 14 9 7 3 6 10 11 4 3 2 2 356 348 343 341 339 339 340 340 339 339 337 333 331 330 329 326 325 324 323 322 320
54 50 49 49 49 55 56 58 50 43 28 20 356 14 41 37 11 3 19 8 11 7 2 359 3 9 7 4 4 3 1 358 357 355 352 350 347 344 343 344 344 343 342 340 337 335 332 330 328 325 323 321 319 317
46 45 40 45 50 56 59 55 59 59 43 30 44 20 6 19 4 6 358 6 4 358 356 1 359 2 1 4 3 3 360 354 351 348 348 350 351 352 352 350 349 347 344 342 339 337 335 332 329 327 325 323 322 321
50 48 48 50 52 55 62 54 48 45 44 35 23 19 7 12 358 10 11 2 4 3 1 1 5 4 3 2 360 355 351 351 351 355 360 1 359 356 353 351 349 347 346 344 342 340 336 333 331 328 326 325 324 323